User: anonymous   Login
Location: Dürabuch
(48.2640°N, 11.2185°E)
Time: 18:21:37
(UTC+00:00)
Language:

Cosmos 1953 - Orbit

View from above orbital plane
View from above orbital plane
View from above satellite
View from above satellite

Ground track
Ground track

The orbit data is extracted from the following two-line orbital elements,

1 19210U 88050A   24206.95392919  .00008570  00000-0  44681-3 0  9991
2 19210  82.5132  29.2443 0015212  43.4573 316.7856 15.15731164947580
Epoch (UTC): 24 July 2024 22:53:39
Eccentricity: 0.0015212
inclination: 82.5132°
perigee height: 508 km
apogee height: 529 km
right ascension of ascending node: 29.2443°
argument of perigee: 43.4573°
revolutions per day: 15.15731164
mean anomaly at epoch: 316.7856°
orbit number at epoch: 94758

The dashed part of the orbit path shows where the satellite is in the earth's shadow,  

DLR